Flag for China Weather past 2 weeks in Langfang, Hebei, China

Now
68 °F

Fog.


Feels Like: 68 °F
Forecast: 57 / 82 °F
Wind: 3 mph from North

Location: Beijing Airport

Current Time: Sep 20, 2014 at 9:56:54 AM

Latest Report: Sep 20, 2014 at 9:00 AM


Visibility: 2 mi

Pressure: 29.86 "Hg

Humidity: 83%

Dew point: 63 °F

Location of LangfangLocation

Historic Weather in Langfang — Graph

°F

Langfang temperature yesterday

Maximum temperature yesterday: 77 °F (at 1:30 PM)
Minimum temperature yesterday: 54 °F (at 5:00 AM)
Average temperature yesterday: 65 °F

Past Weeks' High & Low Weather Summary

 TemperatureHumidityPressure
High86 °F (Sep 5, 2:30 PM)100% (Sep 12, 5:00 AM)30.18 "Hg (Sep 12, 5:00 AM)
Low52 °F (Sep 15, 5:30 AM)14% (Sep 15, 2:30 PM)29.68 "Hg (Sep 7, 3:00 PM)
Average70 °F67%29.95 "Hg
* Reported Sep 5 8:00 AM — Sep 20 8:30 AM, Langfang, Weather by CustomWeather, © 2014

Note: Actual official high and low records may vary slightly from our data, if they occured in-between our weather recording intervals... More about our weather records

Advertising

Langfang weather history for previous 24 hours

 ConditionsComfort  
Time TempWeatherWind HumidityBarometerVisibility
8:30 AM
Sep 20
68 °FFog.3 mph83%29.86 "Hg2 mi
8:00 AM66 °FFog.3 mph88%29.86 "Hg2 mi
7:30 AM64 °FFog.1 mph94%29.86 "Hg2 mi
7:00 AM63 °FFog.No wind94%29.83 "Hg2 mi
6:30 AM63 °FFog.1 mph94%29.83 "Hg2 mi
6:00 AM63 °FFog.6 mph94%29.83 "Hg2 mi
5:30 AM64 °FFog.3 mph94%29.83 "Hg2 mi
5:00 AM63 °FFog.No wind94%29.80 "Hg2 mi
4:30 AM64 °FFog.1 mph88%29.80 "Hg2 mi
4:00 AM64 °FFog.No wind94%29.80 "Hg2 mi
3:30 AM64 °FFog.1 mph94%29.80 "Hg2 mi
3:00 AM64 °FFog.1 mph94%29.80 "Hg2 mi
2:30 AM64 °FFog.3 mph88%29.83 "Hg2 mi
2:00 AM64 °FFog.1 mph94%29.83 "Hg2 mi
1:30 AM64 °FFog.1 mph88%29.83 "Hg2 mi
1:00 AM64 °FFog.1 mph88%29.83 "Hg2 mi
12:30 AM64 °FFog.1 mph88%29.83 "Hg3 mi
12:00 AM64 °FFog.1 mph88%29.83 "Hg3 mi
11:30 PM
Sep 19
64 °FFog.1 mph88%29.83 "Hg3 mi
11:00 PM64 °FFog.3 mph88%29.83 "Hg3 mi
10:30 PM64 °FFog.3 mph94%29.83 "Hg3 mi
10:00 PM64 °FFog.1 mph94%29.86 "Hg3 mi
9:30 PM64 °FFog.1 mph94%29.86 "Hg3 mi
9:00 PM66 °FFog.1 mph88%29.86 "Hg3 mi
8:30 PM66 °FFog.1 mph88%29.86 "Hg3 mi
8:00 PM66 °FSprinkles. Fog.3 mph88%29.83 "Hg3 mi
7:30 PM66 °FSprinkles. Fog.3 mph88%29.83 "Hg3 mi
7:00 PM66 °FSprinkles. Partly cloudy.6 mph88%29.83 "Hg4 mi
6:30 PM72 °FThunderstorms. Overcast.6 mph69%29.86 "Hg4 mi
6:00 PM73 °FPassing clouds.6 mph61%29.83 "Hg4 mi
5:30 PM73 °FClear.6 mph61%29.80 "Hg5 mi
5:00 PM75 °FClear.3 mph54%29.80 "Hg5 mi
4:30 PM77 °FClear.8 mph47%29.80 "Hg5 mi
4:00 PM75 °FClear.8 mph57%29.80 "Hg4 mi
3:30 PM77 °FClear.8 mph47%29.80 "Hg4 mi
3:00 PM77 °FClear.8 mph51%29.80 "Hg4 mi
2:30 PM75 °FClear.6 mph54%29.83 "Hg4 mi
2:00 PM75 °FClear.6 mph54%29.83 "Hg4 mi
1:30 PM77 °FClear.8 mph51%29.86 "Hg4 mi
1:00 PM75 °FClear.6 mph54%29.86 "Hg4 mi
12:30 PM73 °FHaze.6 mph61%29.89 "Hg3 mi
12:00 PM75 °FHaze.6 mph54%29.89 "Hg3 mi
11:30 AM72 °FHaze.3 mph65%29.92 "Hg3 mi
11:00 AM70 °FHaze.3 mph69%29.92 "Hg3 mi
10:30 AM70 °FFog.3 mph69%29.95 "Hg3 mi
10:00 AM68 °FFog.3 mph73%29.95 "Hg3 mi
9:30 AM66 °FFog.1 mph73%29.95 "Hg3 mi
9:00 AM64 °FFog.3 mph83%29.95 "Hg3 mi
Weather by CustomWeather, © 2014

See weather overviewHow to use our weather pages